KD7DVD-1 Weather Reports


Display with metric or nautical units.
time (UTC)temp
F
wind
direction
speed
MPH
gust
MPH
rain 1hr
in
rain 24hr
in
rain mn
in
humidity
%
barometer
mb
20260506003018 71 0.0 3.0 0.00 0.00 0.00 59 1014.7
20260506000017 69 0.0 3.0 0.00 0.00 0.00 63 1014.9
20260505233017 67 0.0 5.0 0.00 0.00 0.00 67 1015.3
20260505230017 66 0.0 5.0 0.00 0.00 0.00 67 1015.4
20260505223017 64 0.0 5.0 0.00 0.00 0.00 70 1015.6
20260505220017 63 270 1.0 6.0 0.00 0.00 0.00 71 1015.9
20260505213017 63 0.0 3.0 0.00 0.00 0.00 73 1016.0
20260505210017 62 270 1.0 6.0 0.00 0.00 0.00 74 1016.0
20260505203016 61 270 1.0 5.0 0.00 0.00 0.00 75 1016.2
20260505200016 61 0.0 2.0 0.00 0.00 0.00 76 1016.1
20260505193016 60 0.0 1.0 0.00 0.00 0.00 78 1016.2
20260505190016 59 0.0 3.0 0.00 0.00 0.00 78 1016.1
20260505183016 58 0.0 4.0 0.00 0.00 0.00 80 1016.0
20260505180016 58 0.0 3.0 0.00 0.00 0.00 80 1015.9
20260505173016 57 0.0 4.0 0.00 0.00 0.00 81 1016.0
20260505170016 57 0.0 2.0 0.00 0.00 0.00 82 1015.7
20260505163016 57 0.0 2.0 0.00 0.00 0.00 83 1015.7
20260505153016 57 0.0 3.0 0.00 0.00 0.00 83 1015.4
20260505123015 56 0.0 2.0 0.00 0.00 0.00 84 1013.9
20260505120015 56 0.0 2.0 0.00 0.00 0.00 84 1013.8
20260505113015 56 0.0 2.0 0.00 0.00 0.00 85 1013.6
20260505100017 55 0.0 3.0 0.00 0.00 0.00 86 1013.0
20260505093017 54 0.0 1.0 0.00 0.00 0.00 87 1012.8
20260505090017 54 0.0 1.0 0.00 0.00 0.00 87 1012.6
20260505083017 54 0.0 1.0 0.00 0.00 0.00 86 1012.4
20260505080017 55 0.0 1.0 0.00 0.00 0.00 85 1012.5
20260505073017 55 0.0 1.0 0.00 0.00 0.00 85 1012.2
20260505070017 56 0.0 1.0 0.00 0.00 0.00 84 1012.0
20260505063016 57 0.0 1.0 0.00 0.00 0.00 83 1011.7
20260505060016 58 0.0 1.0 0.00 0.00 0.00 81 1011.3
20260505053016 59 0.0 1.0 0.00 0.00 0.00 78 1010.9
20260505040015 65 0.0 1.0 0.00 0.00 0.00 69 1009.9
20260505033015 68 0.0 1.0 0.00 0.00 0.00 65 1009.3
20260505030016 70 0.0 1.0 0.00 0.00 0.00 61 1009.2
20260505023015 74 0.0 1.0 0.00 0.00 0.00 56 1008.9
20260505020017 79 0.0 2.0 0.00 0.00 0.00 49 1008.9
20260505013017 81 0.0 2.0 0.00 0.00 0.00 45 1008.9
20260505010017 82 0.0 4.0 0.00 0.00 0.00 43 1009.0